This is the latest recevied weather packets stored in our database for station/object WY1B. If no packets are shown the sender has not sent any weather packets the latest 10 day(s).
| Time | Temp. | Humidity | Pressure | Rain* | Wind** | Luminosity | Snow |
|---|---|---|---|---|---|---|---|
| 1787861953 | 46.67° C | 16% | 1004.4 hPa | 0 mm | - | 840 W/m² | - |
| 1787861653 | 47.22° C | 15% | 1004.3 hPa | 0 mm | - | 866 W/m² | - |
| 1787861351 | 46.11° C | 16% | 1004.5 hPa | 0 mm | - | 884 W/m² | - |
| 1787861046 | 46.11° C | 16% | 1004.5 hPa | 0 mm | - | 898 W/m² | - |
| 1787860745 | 47.22° C | 16% | 1004.7 hPa | 0 mm | - | 907 W/m² | - |
| 1787860441 | 47.22° C | 15% | 1004.8 hPa | 0 mm | - | 792 W/m² | - |
| 1787860140 | 46.11° C | 16% | 1004.9 hPa | 0 mm | - | 1011 W/m² | - |
| 1787859836 | 45° C | 16% | 1005 hPa | 0 mm | - | 653 W/m² | - |
| 1787859531 | 45° C | 17% | 1005 hPa | 0 mm | - | 901 W/m² | - |
| 1787859231 | 45.56° C | 17% | 1005 hPa | 0 mm | - | 737 W/m² | - |
| 1787858928 | 45.56° C | 17% | 1005.4 hPa | 0 mm | - | 778 W/m² | - |
| 1787858623 | 45.56° C | 17% | 1005.2 hPa | 0 mm | - | 697 W/m² | - |
| 1787858318 | 45.56° C | 17% | 1005.4 hPa | 0 mm | - | 694 W/m² | - |
| 1787858013 | 46.11° C | 17% | 1005.4 hPa | 0 mm | - | 703 W/m² | - |
| 1787857709 | 46.11° C | 17% | 1005.7 hPa | 0 mm | - | 1012 W/m² | - |
| 1787857404 | 45.56° C | 17% | 1005.6 hPa | 0 mm | - | 852 W/m² | - |
| 1787857102 | 45.56° C | 16% | 1005.6 hPa | 0 mm | - | 984 W/m² | - |
| 1787856798 | 45.56° C | 17% | 1005.7 hPa | 0 mm | - | 970 W/m² | - |
| 1787856492 | 45.56° C | 17% | 1005.5 hPa | 0 mm | - | 956 W/m² | - |
| 1787856188 | 45.56° C | 17% | 1005.8 hPa | 0 mm | - | 938 W/m² | - |
| 1787855882 | 45.56° C | 17% | 1006.1 hPa | 0 mm | - | 931 W/m² | - |
| 1787855577 | 45° C | 17% | 1006 hPa | 0 mm | - | 920 W/m² | - |
| 1787855272 | 43.89° C | 18% | 1006.1 hPa | 0 mm | - | 909 W/m² | - |
| 1787854968 | 43.89° C | 19% | 1006.2 hPa | 0 mm | - | 905 W/m² | - |
| 1787854663 | 43.33° C | 18% | 1006.4 hPa | 0 mm | - | 906 W/m² | - |
* Rain latest hour (hover to see other rain measurements)
** Current wind speed in m/s (hover to see current wind gust speed)